QPF
0.08 0.06 0.05 0.04 0.04 0.03 0.03 0.03 0.03 0.03 0.02 0.02 0.03 0.03 0.03 0.03 0.03 0.03 0.03 0.03 0.05 0.05 0.04 0.02 0.02 0.03 0.03 0.05 0.06 0.07 0.07 0.06 0.05 0.05 0.05 0.04 0.03 0.03 0.03 0.03 0.04 0.04 0.03
0.05 0.05 0.06 0.05 0.05 0.04 0.03 0.03 0.03 0.03 0.02 0.02 0.02 0.01 0.01 0.02 0.02 0.03 0.03 0.04 0.06 0.04 0.04 0.04 0.03 0.05 0.04 0.03 0.04 0.04 0.06 0.06 0.05 0.04 0.05 0.04 0.04 0.04 0.04 0.04 0.04 0.04 0.04
0.05 0.03 0.05 0.06 0.05 0.05 0.05 0.04 0.03 0.03 0.02 0.02 0.02 0.01 0.01 0.02 0.02 0.03 0.03 0.03 0.04 0.05 0.05 0.04 0.04 0.05 0.03 0.03 0.03 0.04 0.05 0.05 0.06 0.05 0.05 0.05 0.05 0.05 0.04 0.04 0.04 0.04 0.04
0.05 0.04 0.05 0.04 0.04 0.04 0.05 0.04 0.04 0.04 0.03 0.02 0.02 0.03 0.03 0.03 0.03 0.05 0.05 0.03 0.03 0.04 0.04 0.04 0.05 0.04 0.04 0.05 0.06 0.05 0.06 0.07 0.07 0.07 0.07 0.06 0.05 0.05 0.05 0.03 0.03 0.04 0.04
0.04 0.04 0.04 0.03 0.04 0.04 0.03 0.03 0.04 0.04 0.03 0.02 0.02 0.03 0.03 0.04 0.05 0.06 0.06 0.04 0.02 0.02 0.03 0.04 0.04 0.04 0.04 0.06 0.06 0.06 0.07 0.07 0.06 0.06 0.05 0.05 0.04 0.04 0.04 0.04 0.04 0.04 0.05
0.03 0.02 0.02 0.02 0.03 0.03 0.03 0.03 0.03 0.03 0.03 0.03 0.03 0.03 0.04 0.04 0.06 0.07 0.05 0.03 0.01 0.01 0.02 0.02 0.02 0.02 0.03 0.05 0.07 0.08 0.08 0.07 0.06 0.04 0.04 0.05 0.04 0.03 0.03 0.04 0.04 0.03 0.03
0.02 0.02 0.02 0.02 0.03 0.04 0.04 0.03 0.02 0.02 0.03 0.03 0.03 0.04 0.04 0.05 0.04 0.03 0.03 0.02 0.01 0.02 0.02 0.02 0.01 0.01 0.01 0.02 0.05 0.06 0.06 0.05 0.05 0.04 0.03 0.03 0.03 0.03 0.03 0.03 0.03 0.02 0.02
0.02 0.02 0.03 0.04 0.03 0.02 0.02 0.02 0.02 0.02 0.02 0.02 0.02 0.02 0.02 0.03 0.04 0.03 0.03 0.03 0.02 0.02 0.02 0.02 0.01 0.01 0.01 0.02 0.04 0.05 0.04 0.03 0.03 0.03 0.02 0.02 0.02 0.03 0.04 0.03 0.03 0.03 0.03
0.02 0.03 0.02 0.02 0.01 0.01 0.02 0.02 0.02 0.02 0.03 0.02 0.03 0.03 0.04 0.03 0.05 0.05 0.06 0.06 0.05 0.05 0.05 0.03 0.01 0.01 0.01 0.03 0.05 0.04 0.03 0.02 0.02 0.03 0.03 0.03 0.03 0.03 0.04 0.04 0.03 0.04 0.03
0.01 0.01 0.01 0.01 0.01 0.01 0.01 0.02 0.02 0.03 0.03 0.03 0.04 0.04 0.03 0.02 0.04 0.06 0.09 0.11 0.11 0.09 0.07 0.05 0.03 0.02 0.02 0.03 0.05 0.04 0.03 0.02 0.03 0.03 0.04 0.04 0.03 0.03 0.04 0.04 0.04 0.05 0.05
0.00 0.00 0.00 0.00 0.01 0.01 0.02 0.02 0.03 0.03 0.04 0.04 0.03 0.03 0.03 0.04 0.05 0.07 0.08 0.08 0.08 0.08 0.07 0.07 0.06 0.05 0.04 0.04 0.04 0.02 0.02 0.04 0.05 0.06 0.06 0.05 0.04 0.03 0.03 0.04 0.04 0.04 0.05
0.01 0.00 0.00 0.01 0.01 0.01 0.02 0.02 0.03 0.03 0.03 0.03 0.02 0.02 0.03 0.04 0.06 0.07 0.07 0.06 0.05 0.06 0.06 0.06 0.05 0.05 0.05 0.04 0.03 0.02 0.02 0.04 0.05 0.07 0.07 0.06 0.04 0.03 0.03 0.04 0.04 0.03 0.03
0.01 0.01 0.02 0.02 0.02 0.02 0.03 0.03 0.03 0.03 0.02 0.02 0.02 0.02 0.02 0.02 0.02 0.03 0.04 0.05 0.05 0.05 0.04 0.04 0.04 0.04 0.04 0.03 0.02 0.02 0.03 0.04 0.03 0.04 0.05 0.05 0.04 0.04 0.05 0.04 0.04 0.03 0.03
0.02 0.02 0.02 0.04 0.04 0.04 0.04 0.04 0.04 0.04 0.03 0.03 0.02 0.01 0.01 0.01 0.01 0.02 0.04 0.04 0.04 0.05 0.04 0.04 0.03 0.03 0.03 0.02 0.02 0.02 0.02 0.02 0.02 0.02 0.03 0.04 0.06 0.05 0.05 0.05 0.06 0.05 0.05
0.01 0.01 0.01 0.02 0.03 0.05 0.04 0.03 0.02 0.03 0.02 0.02 0.02 0.02 0.01 0.01 0.01 0.02 0.02 0.02 0.03 0.03 0.03 0.03 0.02 0.02 0.02 0.02 0.02 0.02 0.03 0.04 0.05 0.05 0.05 0.06 0.07 0.08 0.08 0.08 0.09 0.10 0.09
0.01 0.01 0.01 0.01 0.01 0.01 0.01 0.01 0.01 0.02 0.03 0.03 0.02 0.02 0.01 0.01 0.01 0.01 0.02 0.02 0.02 0.02 0.02 0.02 0.02 0.02 0.03 0.03 0.04 0.04 0.05 0.06 0.07 0.08 0.08 0.09 0.12 0.13 0.14 0.13 0.12 0.12 0.11
0.01 0.01 0.01 0.01 0.01 0.01 0.01 0.01 0.01 0.02 0.01 0.01 0.02 0.01 0.01 0.00 0.01 0.01 0.01 0.03 0.02 0.01 0.01 0.02 0.02 0.02 0.03 0.03 0.04 0.05 0.07 0.10 0.11 0.10 0.10 0.10 0.11 0.11 0.10 0.10 0.09 0.09 0.08
0.02 0.02 0.02 0.01 0.01 0.01 0.01 0.02 0.02 0.02 0.02 0.02 0.02 0.02 0.01 0.01 0.01 0.01 0.01 0.02 0.02 0.01 0.02 0.02 0.03 0.03 0.03 0.04 0.05 0.05 0.07 0.09 0.09 0.08 0.07 0.07 0.08 0.08 0.08 0.08 0.08 0.08 0.07
0.03 0.02 0.01 0.01 0.01 0.01 0.01 0.01 0.02 0.02 0.01 0.01 0.01 0.02 0.02 0.02 0.01 0.01 0.01 0.02 0.02 0.03 0.03 0.04 0.03 0.03 0.04 0.04 0.04 0.05 0.05 0.06 0.08 0.08 0.08 0.08 0.07 0.07 0.06 0.07 0.08 0.09 0.09
0.02 0.02 0.02 0.01 0.01 0.01 0.01 0.01 0.02 0.02 0.01 0.01 0.01 0.01 0.02 0.02 0.02 0.02 0.02 0.03 0.04 0.05 0.05 0.05 0.05 0.04 0.03 0.04 0.05 0.06 0.07 0.06 0.07 0.07 0.06 0.06 0.08 0.09 0.08 0.08 0.09 0.09 0.09
0.02 0.03 0.02 0.02 0.01 0.01 0.01 0.02 0.02 0.02 0.02 0.01 0.01 0.01 0.02 0.02 0.02 0.02 0.03 0.03 0.04 0.04 0.04 0.04 0.03 0.03 0.02 0.02 0.03 0.04 0.07 0.09 0.07 0.06 0.06 0.06 0.07 0.10 0.11 0.10 0.09 0.07 0.06
0.02 0.02 0.02 0.03 0.03 0.03 0.02 0.02 0.03 0.04 0.04 0.03 0.02 0.02 0.02 0.02 0.02 0.02 0.02 0.02 0.02 0.03 0.04 0.04 0.03 0.03 0.03 0.02 0.02 0.03 0.04 0.05 0.07 0.07 0.06 0.06 0.06 0.07 0.09 0.09 0.09 0.08 0.06
0.01 0.02 0.02 0.03 0.03 0.03 0.03 0.02 0.02 0.03 0.06 0.06 0.04 0.03 0.03 0.03 0.03 0.03 0.03 0.02 0.02 0.02 0.02 0.02 0.03 0.04 0.03 0.02 0.02 0.02 0.02 0.02 0.03 0.05 0.07 0.06 0.06 0.07 0.08 0.08 0.08 0.08 0.08
0.01 0.02 0.03 0.03 0.03 0.03 0.04 0.04 0.02 0.02 0.03 0.04 0.06 0.07 0.07 0.05 0.04 0.03 0.03 0.03 0.02 0.01 0.02 0.02 0.02 0.03 0.02 0.02 0.02 0.02 0.02 0.02 0.02 0.03 0.03 0.04 0.05 0.05 0.06 0.07 0.07 0.07 0.05
0.01 0.02 0.03 0.03 0.04 0.03 0.04 0.03 0.03 0.03 0.04 0.05 0.06 0.06 0.06 0.05 0.03 0.02 0.02 0.02 0.02 0.02 0.02 0.01 0.01 0.01 0.02 0.03 0.04 0.03 0.03 0.03 0.03 0.03 0.03 0.03 0.04 0.04 0.04 0.05 0.05 0.05 0.04
0.02 0.04 0.04 0.04 0.04 0.04 0.04 0.04 0.05 0.05 0.06 0.05 0.05 0.06 0.05 0.05 0.04 0.03 0.02 0.03 0.03 0.02 0.01 0.01 0.01 0.02 0.04 0.04 0.04 0.02 0.02 0.02 0.02 0.02 0.01 0.01 0.02 0.03 0.04 0.04 0.04 0.04 0.04
MSLP
1006.57 1007.39 1008.21 1008.99 1009.69 1010.30 1010.79 1011.20 1011.52 1011.79 1012.00 1012.18 1012.30 1012.34 1012.30 1012.15 1011.87 1011.49 1011.01 1010.46 1009.87 1009.28 1008.71 1008.18 1007.70 1007.27 1006.89 1006.56 1006.28 1006.04 1005.84 1005.70 1005.59 1005.53 1005.50 1005.49 1005.50 1005.53 1005.58 1005.67 1005.81 1006.02 1006.31
1006.60 1007.43 1008.26 1009.07 1009.81 1010.45 1010.98 1011.41 1011.75 1012.02 1012.23 1012.37 1012.45 1012.46 1012.36 1012.16 1011.84 1011.41 1010.87 1010.24 1009.56 1008.85 1008.15 1007.48 1006.87 1006.32 1005.85 1005.47 1005.17 1004.97 1004.84 1004.78 1004.79 1004.84 1004.91 1005.00 1005.09 1005.17 1005.26 1005.37 1005.51 1005.72 1006.01
1006.82 1007.66 1008.51 1009.33 1010.08 1010.74 1011.29 1011.72 1012.06 1012.31 1012.48 1012.59 1012.62 1012.57 1012.43 1012.19 1011.82 1011.34 1010.75 1010.05 1009.29 1008.48 1007.67 1006.88 1006.14 1005.48 1004.92 1004.48 1004.16 1003.97 1003.89 1003.91 1004.01 1004.16 1004.35 1004.53 1004.70 1004.85 1004.99 1005.13 1005.29 1005.50 1005.78
1007.16 1008.01 1008.87 1009.69 1010.45 1011.10 1011.64 1012.06 1012.38 1012.60 1012.74 1012.80 1012.79 1012.70 1012.51 1012.23 1011.83 1011.32 1010.68 1009.94 1009.11 1008.23 1007.32 1006.42 1005.57 1004.81 1004.16 1003.65 1003.29 1003.09 1003.03 1003.10 1003.27 1003.50 1003.76 1004.03 1004.27 1004.49 1004.68 1004.86 1005.05 1005.27 1005.55
1007.54 1008.40 1009.25 1010.06 1010.80 1011.43 1011.95 1012.36 1012.65 1012.85 1012.96 1012.99 1012.95 1012.82 1012.62 1012.31 1011.89 1011.35 1010.70 1009.93 1009.05 1008.11 1007.13 1006.15 1005.21 1004.35 1003.62 1003.03 1002.62 1002.38 1002.31 1002.38 1002.58 1002.85 1003.16 1003.48 1003.78 1004.05 1004.29 1004.51 1004.72 1004.96 1005.24
1007.90 1008.74 1009.57 1010.36 1011.07 1011.67 1012.17 1012.56 1012.84 1013.03 1013.13 1013.15 1013.09 1012.96 1012.75 1012.43 1012.01 1011.47 1010.81 1010.02 1009.13 1008.16 1007.13 1006.09 1005.08 1004.15 1003.34 1002.68 1002.20 1001.90 1001.78 1001.82 1001.99 1002.25 1002.57 1002.90 1003.23 1003.53 1003.80 1004.05 1004.29 1004.54 1004.82
1008.19 1009.00 1009.80 1010.54 1011.21 1011.79 1012.27 1012.65 1012.93 1013.12 1013.23 1013.27 1013.23 1013.11 1012.91 1012.61 1012.20 1011.67 1011.02 1010.24 1009.35 1008.36 1007.32 1006.25 1005.21 1004.22 1003.35 1002.62 1002.07 1001.69 1001.50 1001.47 1001.58 1001.80 1002.08 1002.39 1002.70 1003.00 1003.28 1003.54 1003.79 1004.05 1004.34
1008.40 1009.17 1009.92 1010.61 1011.24 1011.79 1012.26 1012.64 1012.94 1013.16 1013.30 1013.37 1013.36 1013.28 1013.10 1012.83 1012.44 1011.94 1011.31 1010.56 1009.69 1008.72 1007.69 1006.63 1005.58 1004.58 1003.67 1002.90 1002.28 1001.84 1001.56 1001.45 1001.47 1001.60 1001.81 1002.06 1002.32 1002.59 1002.85 1003.09 1003.34 1003.60 1003.88
1008.55 1009.28 1009.97 1010.62 1011.21 1011.74 1012.20 1012.59 1012.92 1013.17 1013.36 1013.48 1013.51 1013.47 1013.33 1013.08 1012.73 1012.26 1011.66 1010.95 1010.12 1009.21 1008.22 1007.20 1006.18 1005.21 1004.30 1003.52 1002.87 1002.37 1002.02 1001.82 1001.75 1001.78 1001.89 1002.06 1002.25 1002.45 1002.66 1002.87 1003.09 1003.33 1003.59
1008.69 1009.37 1010.02 1010.63 1011.19 1011.70 1012.17 1012.58 1012.93 1013.22 1013.45 1013.61 1013.69 1013.68 1013.57 1013.36 1013.04 1012.60 1012.05 1011.39 1010.62 1009.78 1008.87 1007.93 1006.98 1006.06 1005.21 1004.45 1003.80 1003.27 1002.88 1002.61 1002.46 1002.40 1002.41 1002.48 1002.58 1002.70 1002.84 1003.00 1003.17 1003.37 1003.60
1008.85 1009.51 1010.12 1010.71 1011.25 1011.75 1012.22 1012.64 1013.02 1013.34 1013.60 1013.79 1013.89 1013.91 1013.82 1013.64 1013.34 1012.95 1012.44 1011.84 1011.16 1010.40 1009.60 1008.76 1007.92 1007.10 1006.33 1005.63 1005.02 1004.51 1004.10 1003.80 1003.58 1003.44 1003.37 1003.35 1003.36 1003.40 1003.46 1003.54 1003.66 1003.81 1003.99
1009.05 1009.70 1010.31 1010.88 1011.41 1011.92 1012.39 1012.82 1013.21 1013.54 1013.81 1014.01 1014.12 1014.14 1014.07 1013.90 1013.63 1013.27 1012.82 1012.29 1011.70 1011.05 1010.36 1009.65 1008.94 1008.24 1007.59 1006.98 1006.44 1005.97 1005.59 1005.27 1005.03 1004.84 1004.70 1004.61 1004.54 1004.50 1004.49 1004.51 1004.56 1004.64 1004.78
1009.28 1009.94 1010.56 1011.13 1011.68 1012.18 1012.65 1013.08 1013.46 1013.79 1014.05 1014.23 1014.33 1014.35 1014.27 1014.11 1013.87 1013.55 1013.17 1012.72 1012.22 1011.69 1011.13 1010.55 1009.98 1009.42 1008.88 1008.38 1007.93 1007.53 1007.19 1006.89 1006.65 1006.44 1006.27 1006.13 1006.01 1005.91 1005.84 1005.79 1005.78 1005.81 1005.88
1009.52 1010.20 1010.84 1011.43 1011.98 1012.50 1012.96 1013.38 1013.74 1014.04 1014.27 1014.43 1014.50 1014.50 1014.42 1014.27 1014.06 1013.78 1013.46 1013.10 1012.71 1012.29 1011.86 1011.42 1010.97 1010.54 1010.12 1009.73 1009.37 1009.04 1008.75 1008.49 1008.27 1008.07 1007.89 1007.72 1007.58 1007.44 1007.33 1007.24 1007.18 1007.16 1007.20
1009.70 1010.41 1011.08 1011.70 1012.27 1012.78 1013.24 1013.64 1013.98 1014.24 1014.43 1014.55 1014.60 1014.58 1014.49 1014.36 1014.18 1013.96 1013.72 1013.45 1013.15 1012.85 1012.53 1012.21 1011.88 1011.56 1011.24 1010.94 1010.65 1010.39 1010.15 1009.93 1009.73 1009.55 1009.39 1009.23 1009.08 1008.94 1008.81 1008.70 1008.61 1008.56 1008.56
1009.80 1010.53 1011.23 1011.87 1012.45 1012.97 1013.43 1013.80 1014.11 1014.33 1014.48 1014.57 1014.59 1014.56 1014.48 1014.38 1014.25 1014.09 1013.93 1013.75 1013.56 1013.35 1013.13 1012.91 1012.67 1012.43 1012.18 1011.94 1011.71 1011.49 1011.29 1011.11 1010.94 1010.79 1010.65 1010.51 1010.38 1010.25 1010.13 1010.02 1009.93 1009.86 1009.84
1009.78 1010.52 1011.24 1011.90 1012.50 1013.02 1013.47 1013.83 1014.10 1014.30 1014.42 1014.48 1014.49 1014.46 1014.41 1014.34 1014.27 1014.19 1014.10 1014.02 1013.92 1013.80 1013.67 1013.51 1013.34 1013.15 1012.95 1012.75 1012.55 1012.35 1012.18 1012.02 1011.88 1011.75 1011.64 1011.53 1011.42 1011.32 1011.22 1011.13 1011.05 1011.00 1010.97
1009.63 1010.38 1011.11 1011.78 1012.39 1012.92 1013.37 1013.72 1013.97 1014.15 1014.25 1014.31 1014.31 1014.31 1014.29 1014.27 1014.26 1014.26 1014.26 1014.25 1014.24 1014.20 1014.13 1014.04 1013.91 1013.75 1013.57 1013.39 1013.20 1013.02 1012.85 1012.71 1012.59 1012.48 1012.39 1012.31 1012.24 1012.17 1012.10 1012.04 1011.98 1011.94 1011.92
1009.38 1010.13 1010.86 1011.54 1012.17 1012.70 1013.15 1013.50 1013.75 1013.92 1014.02 1014.08 1014.10 1014.12 1014.15 1014.18 1014.24 1014.31 1014.39 1014.46 1014.52 1014.54 1014.53 1014.47 1014.38 1014.24 1014.08 1013.90 1013.72 1013.55 1013.39 1013.26 1013.15 1013.06 1012.99 1012.94 1012.89 1012.85 1012.81 1012.78 1012.74 1012.72 1012.71
1009.07 1009.81 1010.54 1011.23 1011.86 1012.41 1012.86 1013.22 1013.47 1013.65 1013.76 1013.83 1013.88 1013.93 1014.00 1014.09 1014.20 1014.34 1014.48 1014.61 1014.73 1014.80 1014.84 1014.82 1014.75 1014.64 1014.50 1014.33 1014.16 1014.00 1013.86 1013.73 1013.64 1013.57 1013.52 1013.49 1013.47 1013.45 1013.43 1013.41 1013.39 1013.38 1013.38
1008.75 1009.47 1010.20 1010.90 1011.53 1012.09 1012.55 1012.91 1013.18 1013.37 1013.49 1013.58 1013.65 1013.73 1013.84 1013.97 1014.13 1014.31 1014.50 1014.68 1014.84 1014.95 1015.02 1015.04 1015.01 1014.93 1014.81 1014.67 1014.53 1014.40 1014.28 1014.18 1014.11 1014.06 1014.03 1014.02 1014.01 1014.00 1013.99 1013.98 1013.97 1013.97 1013.97
1008.44 1009.15 1009.87 1010.57 1011.21 1011.78 1012.24 1012.61 1012.88 1013.08 1013.22 1013.32 1013.41 1013.51 1013.64 1013.79 1013.98 1014.19 1014.40 1014.61 1014.79 1014.94 1015.04 1015.09 1015.10 1015.06 1014.98 1014.89 1014.80 1014.71 1014.64 1014.58 1014.54 1014.52 1014.52 1014.52 1014.52 1014.52 1014.51 1014.50 1014.49 1014.48 1014.48
1008.16 1008.87 1009.59 1010.28 1010.91 1011.47 1011.93 1012.29 1012.56 1012.76 1012.90 1013.01 1013.11 1013.22 1013.35 1013.51 1013.70 1013.92 1014.14 1014.35 1014.55 1014.71 1014.84 1014.92 1014.96 1014.97 1014.95 1014.93 1014.90 1014.87 1014.86 1014.86 1014.88 1014.90 1014.93 1014.95 1014.96 1014.97 1014.96 1014.94 1014.92 1014.90 1014.89
1007.91 1008.61 1009.32 1009.99 1010.60 1011.14 1011.58 1011.92 1012.18 1012.37 1012.50 1012.60 1012.70 1012.80 1012.93 1013.08 1013.26 1013.46 1013.67 1013.88 1014.07 1014.24 1014.38 1014.49 1014.57 1014.62 1014.67 1014.71 1014.76 1014.81 1014.87 1014.95 1015.03 1015.10 1015.17 1015.23 1015.26 1015.28 1015.27 1015.26 1015.23 1015.20 1015.17
1007.68 1008.36 1009.04 1009.68 1010.25 1010.75 1011.15 1011.46 1011.69 1011.85 1011.96 1012.05 1012.13 1012.23 1012.34 1012.48 1012.64 1012.81 1013.00 1013.19 1013.36 1013.52 1013.67 1013.79 1013.90 1014.00 1014.10 1014.21 1014.34 1014.47 1014.62 1014.77 1014.92 1015.07 1015.19 1015.29 1015.36 1015.40 1015.41 1015.40 1015.37 1015.34 1015.30
1007.43 1008.09 1008.72 1009.31 1009.82 1010.26 1010.60 1010.86 1011.05 1011.18 1011.27 1011.34 1011.41 1011.49 1011.58 1011.70 1011.84 1011.99 1012.15 1012.31 1012.46 1012.61 1012.74 1012.87 1013.00 1013.13 1013.28 1013.45 1013.64 1013.85 1014.08 1014.31 1014.54 1014.76 1014.95 1015.11 1015.23 1015.31 1015.35 1015.36 1015.35 1015.32 1015.28
Thickness
5764 5762 5759 5757 5755 5753 5751 5749 5747 5746 5744 5743 5742 5741 5740 5738 5737 5735 5733 5732 5730 5728 5727 5726 5724 5723 5722 5721 5719 5718 5716 5715 5712 5714 5715 5716 5715 5715 5715 5714 5713 5713 5712
5762 5759 5756 5754 5752 5749 5746 5745 5743 5741 5741 5740 5738 5737 5736 5734 5733 5731 5729 5728 5726 5724 5723 5722 5720 5720 5717 5716 5715 5713 5712 5712 5710 5709 5710 5710 5710 5711 5710 5709 5709 5709 5708
5759 5755 5753 5751 5748 5745 5744 5742 5740 5738 5737 5736 5734 5733 5731 5730 5729 5727 5726 5724 5722 5721 5720 5718 5716 5714 5713 5711 5710 5709 5709 5708 5707 5705 5705 5705 5705 5705 5704 5704 5704 5703 5703
5754 5751 5748 5746 5745 5743 5741 5738 5736 5735 5733 5732 5730 5729 5727 5726 5724 5723 5721 5719 5717 5716 5715 5714 5713 5711 5709 5708 5706 5704 5704 5702 5701 5700 5699 5698 5698 5698 5697 5697 5697 5697 5697
5750 5746 5744 5743 5741 5738 5736 5734 5732 5731 5729 5728 5726 5724 5723 5721 5720 5718 5716 5715 5713 5711 5710 5709 5708 5708 5707 5705 5703 5701 5699 5697 5695 5694 5693 5692 5692 5691 5691 5692 5691 5691 5691
5746 5742 5740 5738 5735 5733 5731 5730 5728 5726 5725 5723 5721 5719 5717 5717 5716 5714 5712 5711 5708 5706 5704 5703 5703 5703 5702 5700 5699 5697 5695 5692 5690 5689 5688 5687 5687 5687 5687 5686 5684 5683 5684
5742 5738 5735 5732 5729 5727 5727 5724 5722 5721 5719 5717 5715 5713 5712 5711 5710 5708 5706 5704 5702 5700 5699 5697 5698 5698 5696 5694 5693 5691 5689 5689 5688 5686 5684 5684 5683 5683 5682 5680 5679 5678 5679
5735 5732 5730 5727 5724 5723 5721 5719 5717 5715 5713 5711 5710 5708 5706 5705 5704 5702 5700 5698 5696 5694 5693 5692 5691 5691 5690 5688 5687 5685 5684 5684 5683 5682 5682 5681 5681 5680 5679 5677 5675 5673 5673
5728 5726 5724 5722 5719 5717 5714 5713 5711 5709 5707 5705 5704 5702 5700 5699 5697 5695 5693 5690 5689 5688 5687 5686 5684 5684 5684 5682 5680 5679 5678 5679 5679 5678 5678 5677 5676 5675 5674 5671 5668 5666 5666
5722 5721 5719 5717 5714 5712 5709 5707 5705 5702 5701 5699 5697 5695 5693 5691 5690 5688 5685 5683 5681 5681 5680 5680 5679 5678 5677 5675 5674 5672 5672 5673 5673 5672 5671 5671 5670 5670 5668 5667 5665 5662 5661
5718 5715 5712 5710 5708 5705 5703 5700 5698 5696 5693 5691 5689 5687 5685 5683 5682 5680 5678 5676 5675 5674 5673 5673 5673 5672 5671 5669 5667 5667 5667 5667 5666 5665 5665 5665 5664 5663 5663 5661 5660 5659 5657
5711 5708 5705 5703 5701 5699 5695 5693 5690 5688 5685 5682 5680 5678 5676 5675 5673 5672 5670 5669 5668 5666 5666 5666 5666 5665 5663 5662 5661 5661 5660 5659 5659 5658 5657 5658 5658 5658 5657 5656 5655 5654 5653
5703 5700 5698 5696 5693 5691 5688 5685 5682 5679 5676 5674 5671 5669 5667 5666 5665 5663 5662 5661 5660 5659 5659 5659 5658 5657 5656 5656 5655 5654 5654 5653 5652 5651 5652 5653 5653 5652 5651 5649 5648 5647 5646
5695 5693 5690 5688 5685 5682 5679 5677 5674 5671 5668 5665 5663 5661 5659 5658 5656 5655 5654 5652 5651 5650 5650 5649 5649 5648 5648 5648 5647 5647 5647 5646 5646 5646 5647 5647 5646 5644 5643 5642 5640 5639 5638
5687 5685 5683 5680 5677 5674 5671 5668 5666 5665 5661 5658 5656 5654 5651 5650 5649 5646 5645 5644 5642 5641 5640 5639 5640 5639 5639 5639 5639 5639 5639 5638 5638 5638 5638 5638 5638 5636 5635 5634 5632 5631 5629
5679 5677 5675 5672 5669 5666 5663 5661 5660 5657 5655 5652 5649 5646 5645 5643 5641 5639 5637 5635 5633 5632 5631 5631 5630 5630 5630 5630 5630 5631 5631 5631 5631 5631 5631 5631 5630 5630 5628 5627 5625 5624 5622
5673 5670 5667 5665 5662 5659 5656 5653 5650 5649 5647 5644 5642 5639 5637 5635 5633 5631 5629 5627 5625 5624 5623 5623 5622 5621 5621 5621 5622 5622 5622 5622 5622 5622 5622 5622 5623 5622 5621 5620 5619 5617 5615
5666 5663 5660 5657 5654 5651 5648 5646 5643 5640 5638 5636 5634 5631 5629 5628 5626 5623 5621 5619 5617 5615 5614 5614 5614 5613 5613 5613 5614 5614 5614 5614 5614 5614 5614 5614 5614 5613 5613 5612 5611 5610 5608
5659 5655 5652 5649 5646 5643 5641 5638 5636 5633 5631 5628 5626 5625 5622 5619 5617 5615 5613 5611 5610 5608 5606 5606 5606 5606 5605 5605 5606 5606 5605 5605 5605 5605 5605 5605 5604 5604 5605 5604 5603 5601 5599
5651 5649 5646 5642 5639 5636 5633 5631 5628 5626 5623 5621 5619 5617 5614 5611 5609 5607 5605 5603 5602 5600 5599 5598 5598 5597 5597 5597 5597 5597 5597 5597 5596 5596 5596 5596 5596 5595 5595 5595 5595 5594 5592
5644 5641 5639 5635 5632 5630 5627 5625 5622 5619 5617 5615 5613 5611 5606 5605 5604 5601 5598 5596 5594 5593 5592 5591 5591 5590 5589 5589 5589 5589 5589 5589 5588 5587 5587 5587 5587 5587 5587 5587 5586 5585 5584
5636 5633 5631 5629 5626 5623 5620 5618 5615 5613 5611 5608 5606 5603 5599 5598 5596 5595 5592 5589 5587 5586 5585 5584 5583 5582 5582 5581 5580 5580 5581 5581 5580 5579 5579 5579 5578 5579 5579 5579 5578 5577 5576
5628 5626 5623 5621 5619 5616 5614 5611 5608 5606 5604 5602 5600 5597 5594 5591 5589 5588 5585 5583 5581 5579 5578 5577 5576 5575 5574 5573 5573 5572 5573 5573 5572 5571 5570 5570 5570 5570 5570 5570 5570 5569 5568
5620 5618 5616 5614 5611 5609 5608 5606 5603 5600 5598 5596 5593 5590 5588 5585 5582 5581 5579 5576 5574 5572 5571 5569 5568 5567 5566 5565 5565 5564 5564 5564 5564 5563 5562 5562 5562 5562 5562 5561 5561 5560 5560
5613 5611 5609 5606 5604 5602 5600 5598 5595 5593 5591 5588 5587 5584 5581 5579 5576 5574 5572 5569 5567 5566 5564 5562 5561 5560 5560 5559 5557 5556 5556 5555 5554 5554 5554 5553 5553 5553 5553 5553 5553 5552 5551
5607 5604 5601 5599 5597 5594 5592 5590 5588 5586 5583 5581 5579 5576 5574 5571 5569 5567 5565 5563 5561 5559 5558 5556 5554 5553 5552 5552 5550 5549 5547 5547 5546 5545 5545 5545 5545 5545 5545 5545 5545 5544 5543